Tracking 29892 objects as of 21-Nov-2024
HD Live streaming from Space Station
objects crossing your sky now

COSMOS 886 DEB

Track COSMOS 886 DEB now!
10-day predictions


NORAD ID: 9962
Int'l Code: 1976-126BC
Perigee: 544.5 km
Apogee: 1,389.5 km
Inclination: 65.8 °
Period: 104.3 minutes
Semi major axis: 7338 km
RCS: 0.1661 m2 (medium)
Launch date: December 27, 1976
Source: Commonwealth of Independent States (former USSR) (CIS)
Launch site: TYURATAM MISSILE AND SPACE COMPLEX (TTMTR)

Note: This is SATELLITE DEBRIS
Your satellite tracking list
Your tracking list is empty




NASA's NSSDC Master Catalog

Two Line Element Set (TLE):
1  9962U 76126BC  24326.12152404  .00004897  00000-0  13004-2 0  9992
2  9962  65.7694   6.5992 0575765 104.7174 261.8405 13.81128845316776
Source of the keplerian elements: AFSPC